Time,TemperatureF,DewpointF,PressureIn,WindDirection,WindDirectionDegrees,WindSpeedMPH,WindSpeedGustMPH,Humidity,HourlyPrecipIn,Conditions,Clouds,dailyrainin,SoftwareType,DateUTC
2013-09-25 00:00:00,55.9,39.5,28.88,East,86,0.0,0.0,54,0.00,,---,0.00,VWS V14.01,2013-09-25 04:00:00,
2013-09-25 00:01:00,57.6,48.2,28.91,East,92,3.6,4.0,71,0.00,,---,0.00,VWS V14.01,2013-09-25 04:01:00,
2013-09-25 00:02:00,57.6,48.2,28.91,East,92,0.0,3.6,71,0.00,,---,0.00,VWS V14.01,2013-09-25 04:02:00,
2013-09-25 00:03:00,57.6,48.2,28.91,East,92,0.0,0.0,71,0.00,,---,0.00,VWS V14.01,2013-09-25 04:03:00,
2013-09-25 00:04:00,57.4,48.1,28.91,East,84,3.1,3.6,71,0.00,,---,0.00,VWS V14.01,2013-09-25 04:04:00,
2013-09-25 00:05:00,57.4,48.1,28.91,ENE,70,3.6,3.6,71,0.00,,---,0.00,VWS V14.01,2013-09-25 04:05:00,
2013-09-25 00:06:00,57.4,48.1,28.91,East,91,0.0,3.6,71,0.00,,---,0.00,VWS V14.01,2013-09-25 04:06:00,
2013-09-25 00:07:00,57.2,47.9,28.91,East,93,3.6,4.9,71,0.00,,---,0.00,VWS V14.01,2013-09-25 04:07:00,
2013-09-25 00:08:00,57.2,48.3,28.91,East,93,2.7,3.6,72,0.00,,---,0.00,VWS V14.01,2013-09-25 04:08:00,
2013-09-25 00:09:00,57.2,48.3,28.91,East,92,3.1,4.0,72,0.00,,---,0.00,VWS V14.01,2013-09-25 04:09:00,
2013-09-25 00:10:00,57.2,48.3,28.91,East,91,2.7,4.0,72,0.00,,---,0.00,VWS V14.01,2013-09-25 04:10:00,
2013-09-25 00:11:00,57.2,48.3,28.91,East,82,3.6,3.6,72,0.00,,---,0.00,VWS V14.01,2013-09-25 04:11:00,
2013-09-25 00:12:00,57.2,48.3,28.91,ESE,103,2.7,3.6,72,0.00,,---,0.00,VWS V14.01,2013-09-25 04:12:00,
2013-09-25 00:13:00,57.0,48.1,28.91,ESE,103,0.0,2.7,72,0.00,,---,0.00,VWS V14.01,2013-09-25 04:13:00,
2013-09-25 00:14:00,57.0,48.5,28.91,ESE,103,0.0,2.7,73,0.00,,---,0.00,VWS V14.01,2013-09-25 04:14:00,
2013-09-25 00:15:00,56.8,48.3,28.91,ESE,103,0.0,0.0,73,0.00,,---,0.00,VWS V14.01,2013-09-25 04:15:00,
2013-09-25 00:16:00,56.8,48.3,28.91,ESE,103,0.0,0.0,73,0.00,,---,0.00,VWS V14.01,2013-09-25 04:16:00,
2013-09-25 00:17:00,56.8,48.3,28.91,ENE,71,0.0,4.5,73,0.00,,---,0.00,VWS V14.01,2013-09-25 04:17:00,
2013-09-25 00:18:00,56.8,48.3,28.91,ENE,78,2.7,3.6,73,0.00,,---,0.00,VWS V14.01,2013-09-25 04:18:00,
2013-09-25 00:19:00,56.7,48.1,28.91,ENE,78,0.0,2.7,73,0.00,,---,0.00,VWS V14.01,2013-09-25 04:19:00,
2013-09-25 00:20:00,56.7,48.1,28.91,East,83,0.0,3.1,73,0.00,,---,0.00,VWS V14.01,2013-09-25 04:20:00,
2013-09-25 00:21:00,56.7,48.1,28.91,East,83,0.0,0.0,73,0.00,,---,0.00,VWS V14.01,2013-09-25 04:21:00,
2013-09-25 00:22:00,56.7,48.1,28.91,East,84,0.0,0.0,73,0.00,,---,0.00,VWS V14.01,2013-09-25 04:22:00,
2013-09-25 00:23:00,56.5,47.9,28.91,East,83,0.0,3.1,73,0.00,,---,0.00,VWS V14.01,2013-09-25 04:23:00,
2013-09-25 00:24:00,56.5,47.9,28.91,East,87,0.0,2.7,73,0.00,,---,0.00,VWS V14.01,2013-09-25 04:24:00,
2013-09-25 00:25:00,56.5,47.9,28.91,East,87,0.0,0.0,73,0.00,,---,0.00,VWS V14.01,2013-09-25 04:25:00,
2013-09-25 00:26:00,56.3,47.8,28.91,East,87,0.0,0.0,73,0.00,,---,0.00,VWS V14.01,2013-09-25 04:26:00,
2013-09-25 00:27:00,56.3,47.8,28.91,East,87,0.0,0.0,73,0.00,,---,0.00,VWS V14.01,2013-09-25 04:27:00,
2013-09-25 00:28:00,56.3,47.8,28.91,East,87,0.0,0.0,73,0.00,,---,0.00,VWS V14.01,2013-09-25 04:28:00,
2013-09-25 00:29:00,56.3,48.1,28.91,East,87,0.0,0.0,74,0.00,,---,0.00,VWS V14.01,2013-09-25 04:29:00,
2013-09-25 00:30:00,56.3,48.1,28.91,East,85,2.7,4.0,74,0.00,,---,0.00,VWS V14.01,2013-09-25 04:30:00,
2013-09-25 00:31:00,56.3,48.1,28.91,East,91,4.5,5.4,74,0.00,,---,0.00,VWS V14.01,2013-09-25 04:31:00,
2013-09-25 00:32:00,56.3,48.1,28.91,East,91,3.1,4.5,74,0.00,,---,0.00,VWS V14.01,2013-09-25 04:32:00,
2013-09-25 00:33:00,56.3,48.5,28.91,East,91,0.0,3.6,75,0.00,,---,0.00,VWS V14.01,2013-09-25 04:33:00,
2013-09-25 00:34:00,56.3,48.8,28.91,East,91,0.0,3.1,76,0.00,,---,0.00,VWS V14.01,2013-09-25 04:34:00,
2013-09-25 00:35:00,56.3,48.8,28.91,East,91,0.0,0.0,76,0.00,,---,0.00,VWS V14.01,2013-09-25 04:35:00,
2013-09-25 00:36:00,56.1,49.0,28.91,East,91,0.0,0.0,77,0.00,,---,0.00,VWS V14.01,2013-09-25 04:36:00,
2013-09-25 00:37:00,56.1,49.0,28.91,East,91,0.0,0.0,77,0.00,,---,0.00,VWS V14.01,2013-09-25 04:37:00,
2013-09-25 00:38:00,56.1,49.0,28.91,East,91,0.0,0.0,77,0.00,,---,0.00,VWS V14.01,2013-09-25 04:38:00,
2013-09-25 00:39:00,55.9,48.8,28.91,East,91,0.0,0.0,77,0.00,,---,0.00,VWS V14.01,2013-09-25 04:39:00,
2013-09-25 00:40:00,55.9,48.8,28.91,East,91,0.0,0.0,77,0.00,,---,0.00,VWS V14.01,2013-09-25 04:40:00,
2013-09-25 00:41:00,55.9,48.8,28.91,East,94,0.0,0.0,77,0.00,,---,0.00,VWS V14.01,2013-09-25 04:41:00,
2013-09-25 00:42:00,55.9,49.2,28.91,East,94,0.0,0.0,78,0.00,,---,0.00,VWS V14.01,2013-09-25 04:42:00,
2013-09-25 00:43:00,55.9,49.2,28.91,East,94,0.0,0.0,78,0.00,,---,0.00,VWS V14.01,2013-09-25 04:43:00,
2013-09-25 00:44:00,55.8,49.0,28.91,East,94,0.0,0.0,78,0.00,,---,0.00,VWS V14.01,2013-09-25 04:44:00,
2013-09-25 00:45:00,55.8,49.0,28.91,ESE,107,0.0,2.7,78,0.00,,---,0.00,VWS V14.01,2013-09-25 04:45:00,
2013-09-25 00:46:00,55.8,49.0,28.91,East,98,0.0,2.7,78,0.00,,---,0.00,VWS V14.01,2013-09-25 04:46:00,
2013-09-25 00:47:00,55.8,49.0,28.91,East,98,0.0,0.0,78,0.00,,---,0.00,VWS V14.01,2013-09-25 04:47:00,
2013-09-25 00:48:00,55.6,48.8,28.91,East,98,0.0,0.0,78,0.00,,---,0.00,VWS V14.01,2013-09-25 04:48:00,
2013-09-25 00:49:00,55.6,48.8,28.91,East,98,0.0,0.0,78,0.00,,---,0.00,VWS V14.01,2013-09-25 04:49:00,
2013-09-25 00:50:00,55.6,48.8,28.91,East,98,0.0,0.0,78,0.00,,---,0.00,VWS V14.01,2013-09-25 04:50:00,
2013-09-25 00:51:00,55.4,48.7,28.91,East,98,0.0,0.0,78,0.00,,---,0.00,VWS V14.01,2013-09-25 04:51:00,
2013-09-25 00:52:00,55.4,48.7,28.91,East,98,0.0,0.0,78,0.00,,---,0.00,VWS V14.01,2013-09-25 04:52:00,
2013-09-25 00:54:00,55.2,48.5,28.91,East,98,0.0,0.0,78,0.00,,---,0.00,VWS V14.01,2013-09-25 04:54:00,
2013-09-25 00:56:00,55.2,48.5,28.91,East,98,0.0,0.0,78,0.00,,---,0.00,VWS V14.01,2013-09-25 04:56:00,
2013-09-25 00:58:00,55.0,48.3,28.91,East,98,0.0,0.0,78,0.00,,---,0.00,VWS V14.01,2013-09-25 04:58:00,
2013-09-25 00:59:00,54.9,48.1,28.91,East,98,0.0,0.0,78,0.00,,---,0.00,VWS V14.01,2013-09-25 04:59:00,
2013-09-25 01:00:00,54.9,48.1,28.91,East,98,0.0,0.0,78,0.00,,---,0.00,VWS V14.01,2013-09-25 05:00:00,
2013-09-25 01:03:00,54.7,48.0,28.91,East,98,0.0,0.0,78,0.00,,---,0.00,VWS V14.01,2013-09-25 05:03:00,
2013-09-25 01:04:00,54.0,42.1,28.88,East,81,3.1,3.1,64,0.00,,---,0.00,VWS V14.01,2013-09-25 05:04:00,
2013-09-25 01:06:00,54.5,47.8,28.91,East,98,0.0,0.0,78,0.00,,---,0.00,VWS V14.01,2013-09-25 05:06:00,
2013-09-25 01:07:00,54.5,47.8,28.91,East,98,0.0,0.0,78,0.00,,---,0.00,VWS V14.01,2013-09-25 05:07:00,
2013-09-25 01:08:00,54.3,47.6,28.91,East,98,0.0,0.0,78,0.00,,---,0.00,VWS V14.01,2013-09-25 05:08:00,
2013-09-25 01:09:00,53.8,42.3,28.88,ENE,77,0.0,0.0,65,0.00,,---,0.00,VWS V14.01,2013-09-25 05:09:00,
2013-09-25 01:10:00,54.3,47.6,28.91,East,98,0.0,0.0,78,0.00,,---,0.00,VWS V14.01,2013-09-25 05:10:00,
2013-09-25 01:11:00,54.3,48.0,28.91,East,98,0.0,0.0,79,0.00,,---,0.00,VWS V14.01,2013-09-25 05:11:00,
2013-09-25 01:12:00,54.1,47.8,28.91,East,98,0.0,0.0,79,0.00,,---,0.00,VWS V14.01,2013-09-25 05:12:00,
2013-09-25 01:13:00,54.1,47.8,28.91,East,98,0.0,0.0,79,0.00,,---,0.00,VWS V14.01,2013-09-25 05:13:00,
2013-09-25 01:14:00,54.1,47.8,28.91,East,98,0.0,0.0,79,0.00,,---,0.00,VWS V14.01,2013-09-25 05:14:00,
2013-09-25 01:15:00,53.6,42.1,28.88,East,79,0.0,0.0,65,0.00,,---,0.00,VWS V14.01,2013-09-25 05:15:00,
2013-09-25 01:16:00,54.1,47.8,28.91,East,98,0.0,0.0,79,0.00,,---,0.00,VWS V14.01,2013-09-25 05:16:00,
2013-09-25 01:19:00,54.0,47.9,28.91,East,98,0.0,0.0,80,0.00,,---,0.00,VWS V14.01,2013-09-25 05:19:00,
2013-09-25 01:20:00,53.6,42.5,28.88,East,79,0.0,0.0,66,0.00,,---,0.00,VWS V14.01,2013-09-25 05:20:00,
2013-09-25 01:22:00,53.8,47.8,28.91,East,98,0.0,0.0,80,0.00,,---,0.00,VWS V14.01,2013-09-25 05:22:00,
2013-09-25 01:26:00,53.4,42.4,28.88,East,85,0.0,0.0,66,0.00,,---,0.00,VWS V14.01,2013-09-25 05:26:00,
2013-09-25 01:27:00,53.6,47.6,28.91,East,98,0.0,0.0,80,0.00,,---,0.00,VWS V14.01,2013-09-25 05:27:00,
2013-09-25 01:28:00,53.6,47.6,28.91,East,98,0.0,0.0,80,0.00,,---,0.00,VWS V14.01,2013-09-25 05:28:00,
2013-09-25 01:30:00,53.6,47.6,28.91,East,98,0.0,0.0,80,0.00,,---,0.00,VWS V14.01,2013-09-25 05:30:00,
2013-09-25 01:31:00,53.4,47.4,28.91,East,98,0.0,0.0,80,0.00,,---,0.00,VWS V14.01,2013-09-25 05:31:00,
2013-09-25 01:32:00,53.2,42.6,28.88,East,90,0.0,0.0,67,0.00,,---,0.00,VWS V14.01,2013-09-25 05:32:00,
2013-09-25 01:35:00,53.4,47.4,28.91,East,98,0.0,0.0,80,0.00,,---,0.00,VWS V14.01,2013-09-25 05:35:00,
2013-09-25 01:38:00,53.1,42.4,28.88,East,90,0.0,0.0,67,0.00,,---,0.00,VWS V14.01,2013-09-25 05:38:00,
2013-09-25 01:39:00,53.2,47.6,28.91,East,98,0.0,0.0,81,0.00,,---,0.00,VWS V14.01,2013-09-25 05:39:00,
2013-09-25 01:41:00,53.2,47.6,28.91,East,98,0.0,0.0,81,0.00,,---,0.00,VWS V14.01,2013-09-25 05:41:00,
2013-09-25 01:44:00,53.2,47.6,28.91,East,98,0.0,0.0,81,0.00,,---,0.00,VWS V14.01,2013-09-25 05:44:00,
2013-09-25 01:46:00,52.7,42.5,28.88,East,98,0.0,3.6,68,0.00,,---,0.00,VWS V14.01,2013-09-25 05:46:00,
2013-09-25 01:48:00,53.1,47.4,28.91,East,98,0.0,0.0,81,0.00,,---,0.00,VWS V14.01,2013-09-25 05:48:00,
2013-09-25 01:51:00,52.5,42.7,28.88,ESE,119,0.0,0.0,69,0.00,,---,0.00,VWS V14.01,2013-09-25 05:51:00,
2013-09-25 01:54:00,53.2,47.9,28.91,East,98,0.0,0.0,82,0.00,,---,0.00,VWS V14.01,2013-09-25 05:54:00,
2013-09-25 01:56:00,52.5,43.0,28.88,ESE,119,0.0,0.0,70,0.00,,---,0.00,VWS V14.01,2013-09-25 05:56:00,
2013-09-25 01:57:00,53.1,48.0,28.91,East,98,0.0,0.0,83,0.00,,---,0.00,VWS V14.01,2013-09-25 05:57:00,
2013-09-25 02:01:00,52.3,43.2,28.88,East,90,3.1,3.1,71,0.00,,---,0.00,VWS V14.01,2013-09-25 06:01:00,
2013-09-25 02:06:00,52.3,43.6,28.88,East,99,3.6,3.6,72,0.00,,---,0.00,VWS V14.01,2013-09-25 06:06:00,
2013-09-25 02:08:00,52.5,47.8,28.91,East,98,0.0,0.0,84,0.00,,---,0.00,VWS V14.01,2013-09-25 06:08:00,
2013-09-25 02:12:00,52.2,43.8,28.88,East,92,3.1,3.6,73,0.00,,---,0.00,VWS V14.01,2013-09-25 06:12:00,
2013-09-25 02:13:00,52.3,47.7,28.91,East,98,0.0,0.0,84,0.00,,---,0.00,VWS V14.01,2013-09-25 06:13:00,
2013-09-25 02:14:00,52.3,47.7,28.91,East,98,0.0,0.0,84,0.00,,---,0.00,VWS V14.01,2013-09-25 06:14:00,
2013-09-25 02:17:00,52.2,43.8,28.88,East,91,4.5,4.5,73,0.00,,---,0.00,VWS V14.01,2013-09-25 06:17:00,
2013-09-25 02:22:00,52.0,43.6,28.88,East,90,0.0,4.0,73,0.00,,---,0.00,VWS V14.01,2013-09-25 06:22:00,
2013-09-25 02:28:00,51.8,47.4,28.91,East,98,0.0,0.0,85,0.00,,---,0.00,VWS V14.01,2013-09-25 06:28:00,
2013-09-25 02:29:00,52.0,44.0,28.88,ENE,60,0.0,2.7,74,0.00,,---,0.00,VWS V14.01,2013-09-25 06:29:00,
2013-09-25 02:34:00,51.8,43.8,28.88,ENE,77,0.0,4.0,74,0.00,,---,0.00,VWS V14.01,2013-09-25 06:34:00,
2013-09-25 02:35:00,51.8,47.4,28.91,East,98,0.0,0.0,85,0.00,,---,0.00,VWS V14.01,2013-09-25 06:35:00,
2013-09-25 02:36:00,51.8,47.4,28.91,East,98,0.0,0.0,85,0.00,,---,0.00,VWS V14.01,2013-09-25 06:36:00,
2013-09-25 02:37:00,51.8,47.4,28.91,East,98,0.0,0.0,85,0.00,,---,0.00,VWS V14.01,2013-09-25 06:37:00,
2013-09-25 02:39:00,51.8,43.8,28.88,East,79,2.7,2.7,74,0.00,,---,0.00,VWS V14.01,2013-09-25 06:39:00,
2013-09-25 02:40:00,51.6,47.3,28.91,East,98,0.0,0.0,85,0.00,,---,0.00,VWS V14.01,2013-09-25 06:40:00,
2013-09-25 02:41:00,51.6,47.3,28.91,East,98,0.0,0.0,85,0.00,,---,0.00,VWS V14.01,2013-09-25 06:41:00,
2013-09-25 02:44:00,51.6,43.6,28.88,ESE,104,0.0,2.7,74,0.00,,---,0.00,VWS V14.01,2013-09-25 06:44:00,
2013-09-25 02:45:00,51.6,47.3,28.91,East,98,0.0,0.0,85,0.00,,---,0.00,VWS V14.01,2013-09-25 06:45:00,
2013-09-25 02:46:00,51.6,47.3,28.91,East,98,0.0,0.0,85,0.00,,---,0.00,VWS V14.01,2013-09-25 06:46:00,
2013-09-25 02:48:00,51.4,47.1,28.91,East,98,0.0,0.0,85,0.00,,---,0.00,VWS V14.01,2013-09-25 06:48:00,
2013-09-25 02:49:00,51.4,43.8,28.88,ENE,77,0.0,0.0,75,0.00,,---,0.00,VWS V14.01,2013-09-25 06:49:00,
2013-09-25 02:54:00,51.6,44.0,28.88,East,95,0.0,4.0,75,0.00,,---,0.00,VWS V14.01,2013-09-25 06:54:00,
2013-09-25 02:55:00,50.9,46.6,28.91,East,98,0.0,0.0,85,0.00,,---,0.00,VWS V14.01,2013-09-25 06:55:00,
2013-09-25 02:59:00,51.6,44.7,28.88,ESE,103,3.1,3.6,77,0.00,,---,0.00,VWS V14.01,2013-09-25 06:59:00,
2013-09-25 03:02:00,51.1,47.0,28.91,East,98,0.0,0.0,86,0.00,,---,0.00,VWS V14.01,2013-09-25 07:02:00,
2013-09-25 03:04:00,51.6,44.7,28.88,East,84,3.1,4.9,77,0.00,,---,0.00,VWS V14.01,2013-09-25 07:04:00,
2013-09-25 03:07:00,50.7,46.7,28.91,East,98,0.0,0.0,86,0.00,,---,0.00,VWS V14.01,2013-09-25 07:07:00,
2013-09-25 03:08:00,50.5,46.5,28.91,East,98,0.0,0.0,86,0.00,,---,0.00,VWS V14.01,2013-09-25 07:08:00,
2013-09-25 03:09:00,51.6,45.0,28.88,ESE,111,3.6,5.4,78,0.00,,---,0.00,VWS V14.01,2013-09-25 07:09:00,
2013-09-25 03:14:00,51.6,45.0,28.88,East,95,3.6,4.0,78,0.00,,---,0.00,VWS V14.01,2013-09-25 07:14:00,
2013-09-25 03:19:00,51.4,44.8,28.88,East,98,3.1,4.5,78,0.00,,---,0.00,VWS V14.01,2013-09-25 07:19:00,
2013-09-25 03:24:00,51.3,44.6,28.88,East,91,3.1,3.6,78,0.00,,---,0.00,VWS V14.01,2013-09-25 07:24:00,
2013-09-25 03:29:00,51.3,44.6,28.88,ENE,72,3.1,3.6,78,0.00,,---,0.00,VWS V14.01,2013-09-25 07:29:00,
2013-09-25 03:30:00,49.8,45.8,28.94,East,98,0.0,0.0,86,0.00,,---,0.00,VWS V14.01,2013-09-25 07:30:00,
2013-09-25 03:34:00,51.1,44.8,28.88,ENE,71,2.7,3.6,79,0.00,,---,0.00,VWS V14.01,2013-09-25 07:34:00,
2013-09-25 03:39:00,50.9,44.6,28.88,East,87,0.0,0.0,79,0.00,,---,0.00,VWS V14.01,2013-09-25 07:39:00,
2013-09-25 03:41:00,50.0,46.0,28.94,East,98,0.0,0.0,86,0.00,,---,0.00,VWS V14.01,2013-09-25 07:41:00,
2013-09-25 03:42:00,49.8,45.8,28.94,East,98,0.0,0.0,86,0.00,,---,0.00,VWS V14.01,2013-09-25 07:42:00,
2013-09-25 03:44:00,50.9,45.0,28.88,NE,53,4.0,4.0,80,0.00,,---,0.00,VWS V14.01,2013-09-25 07:44:00,
2013-09-25 03:45:00,49.8,45.8,28.94,East,98,0.0,0.0,86,0.00,,---,0.00,VWS V14.01,2013-09-25 07:45:00,
2013-09-25 03:49:00,50.9,45.0,28.88,East,92,0.0,3.6,80,0.00,,---,0.00,VWS V14.01,2013-09-25 07:49:00,
2013-09-25 03:54:00,50.9,45.3,28.88,ESE,110,0.0,0.0,81,0.00,,---,0.00,VWS V14.01,2013-09-25 07:54:00,
2013-09-25 03:59:00,50.9,45.3,28.88,East,91,0.0,0.0,81,0.00,,---,0.00,VWS V14.01,2013-09-25 07:59:00,
2013-09-25 04:01:00,49.8,46.1,28.94,East,98,0.0,0.0,87,0.00,,---,0.00,VWS V14.01,2013-09-25 08:01:00,
2013-09-25 04:04:00,50.9,45.6,28.88,East,97,0.0,0.0,82,0.00,,---,0.00,VWS V14.01,2013-09-25 08:04:00,
2013-09-25 04:07:00,49.6,45.9,28.94,East,98,0.0,0.0,87,0.00,,---,0.00,VWS V14.01,2013-09-25 08:07:00,
2013-09-25 04:08:00,49.5,45.8,28.94,East,98,0.0,0.0,87,0.00,,---,0.00,VWS V14.01,2013-09-25 08:08:00,
2013-09-25 04:09:00,50.7,45.4,28.88,East,87,0.0,2.7,82,0.00,,---,0.00,VWS V14.01,2013-09-25 08:09:00,
2013-09-25 04:10:00,49.3,45.6,28.94,East,98,0.0,0.0,87,0.00,,---,0.00,VWS V14.01,2013-09-25 08:10:00,
2013-09-25 04:14:00,50.5,45.3,28.88,East,87,0.0,0.0,82,0.00,,---,0.00,VWS V14.01,2013-09-25 08:14:00,
2013-09-25 04:20:00,50.4,45.1,28.88,East,87,0.0,0.0,82,0.00,,---,0.00,VWS V14.01,2013-09-25 08:20:00,
2013-09-25 04:21:00,49.1,45.4,28.94,East,98,0.0,0.0,87,0.00,,---,0.00,VWS V14.01,2013-09-25 08:21:00,
2013-09-25 04:24:00,49.1,45.4,28.94,East,98,0.0,0.0,87,0.00,,---,0.00,VWS V14.01,2013-09-25 08:24:00,
2013-09-25 04:25:00,50.2,44.9,28.88,East,86,0.0,3.6,82,0.00,,---,0.00,VWS V14.01,2013-09-25 08:25:00,
2013-09-25 04:30:00,50.2,45.2,28.88,ENE,71,3.1,4.5,83,0.00,,---,0.00,VWS V14.01,2013-09-25 08:30:00,
2013-09-25 04:31:00,48.9,45.5,28.94,East,98,0.0,0.0,88,0.00,,---,0.00,VWS V14.01,2013-09-25 08:31:00,
2013-09-25 04:35:00,50.0,45.0,28.85,ENE,68,3.1,3.1,83,0.00,,---,0.00,VWS V14.01,2013-09-25 08:35:00,
2013-09-25 04:40:00,50.0,45.4,28.85,East,86,0.0,0.0,84,0.00,,---,0.00,VWS V14.01,2013-09-25 08:40:00,
2013-09-25 04:42:00,48.9,45.5,28.94,East,98,0.0,0.0,88,0.00,,---,0.00,VWS V14.01,2013-09-25 08:42:00,
2013-09-25 04:43:00,48.9,45.5,28.94,East,98,0.0,0.0,88,0.00,,---,0.00,VWS V14.01,2013-09-25 08:43:00,
2013-09-25 04:45:00,50.0,45.7,28.85,ENE,69,0.0,4.5,85,0.00,,---,0.00,VWS V14.01,2013-09-25 08:45:00,
2013-09-25 04:50:00,50.0,45.7,28.85,East,81,3.6,4.5,85,0.00,,---,0.00,VWS V14.01,2013-09-25 08:50:00,
2013-09-25 04:56:00,50.0,46.0,28.85,East,80,2.7,3.6,86,0.00,,---,0.00,VWS V14.01,2013-09-25 08:56:00,
2013-09-25 05:01:00,50.0,46.3,28.88,East,98,0.0,3.6,87,0.00,,---,0.00,VWS V14.01,2013-09-25 09:01:00,
2013-09-25 05:06:00,49.8,46.4,28.88,ENE,73,0.0,3.6,88,0.00,,---,0.00,VWS V14.01,2013-09-25 09:06:00,
2013-09-25 05:11:00,49.8,46.4,28.88,East,80,0.0,0.0,88,0.00,,---,0.00,VWS V14.01,2013-09-25 09:11:00,
2013-09-25 05:16:00,49.8,46.7,28.85,ENE,75,2.7,3.6,89,0.00,,---,0.00,VWS V14.01,2013-09-25 09:16:00,
2013-09-25 05:21:00,49.8,46.7,28.85,East,79,4.0,4.0,89,0.00,,---,0.00,VWS V14.01,2013-09-25 09:21:00,
2013-09-25 05:26:00,49.8,46.7,28.85,East,89,3.1,4.0,89,0.00,,---,0.00,VWS V14.01,2013-09-25 09:26:00,
2013-09-25 05:31:00,49.8,47.0,28.85,East,92,0.0,3.1,90,0.00,,---,0.00,VWS V14.01,2013-09-25 09:31:00,
2013-09-25 05:36:00,49.8,47.0,28.85,ESE,113,2.7,5.4,90,0.00,,---,0.00,VWS V14.01,2013-09-25 09:36:00,
2013-09-25 05:41:00,49.6,46.8,28.85,East,96,3.6,4.0,90,0.00,,---,0.00,VWS V14.01,2013-09-25 09:41:00,
2013-09-25 05:46:00,49.6,47.1,28.85,ENE,61,3.6,4.0,91,0.00,,---,0.00,VWS V14.01,2013-09-25 09:46:00,
2013-09-25 05:51:00,49.6,47.1,28.85,ENE,70,0.0,2.7,91,0.00,,---,0.00,VWS V14.01,2013-09-25 09:51:00,
2013-09-25 05:56:00,49.6,47.1,28.85,East,90,3.1,3.6,91,0.00,,---,0.00,VWS V14.01,2013-09-25 09:56:00,
2013-09-25 06:01:00,49.6,47.1,28.88,ENE,76,3.1,4.5,91,0.00,,---,0.00,VWS V14.01,2013-09-25 10:01:00,
2013-09-25 06:06:00,49.6,47.1,28.88,East,85,2.7,3.6,91,0.00,,---,0.00,VWS V14.01,2013-09-25 10:06:00,
2013-09-25 06:11:00,49.6,47.4,28.88,East,93,3.1,4.0,92,0.00,,---,0.00,VWS V14.01,2013-09-25 10:11:00,
2013-09-25 06:16:00,49.6,47.4,28.88,ENE,75,2.7,4.0,92,0.00,,---,0.00,VWS V14.01,2013-09-25 10:16:00,
2013-09-25 06:22:00,49.8,47.6,28.88,ESE,111,0.0,2.7,92,0.00,,---,0.00,VWS V14.01,2013-09-25 10:22:00,
2013-09-25 06:27:00,49.8,47.6,28.88,East,85,0.0,3.6,92,0.00,,---,0.00,VWS V14.01,2013-09-25 10:27:00,
2013-09-25 06:32:00,50.0,47.8,28.88,ENE,75,0.0,0.0,92,0.00,,---,0.00,VWS V14.01,2013-09-25 10:32:00,
2013-09-25 06:37:00,50.0,48.1,28.88,ESE,107,2.7,3.6,93,0.00,,---,0.00,VWS V14.01,2013-09-25 10:37:00,
2013-09-25 06:42:00,50.2,48.2,28.88,ESE,114,0.0,3.1,93,0.00,,---,0.00,VWS V14.01,2013-09-25 10:42:00,
2013-09-25 06:47:00,50.2,48.2,28.88,ESE,115,0.0,0.0,93,0.00,,---,0.00,VWS V14.01,2013-09-25 10:47:00,
2013-09-25 06:52:00,50.2,48.2,28.88,ESE,115,0.0,0.0,93,0.00,,---,0.00,VWS V14.01,2013-09-25 10:52:00,
2013-09-25 06:57:00,50.4,48.4,28.88,ESE,110,0.0,0.0,93,0.00,,---,0.00,VWS V14.01,2013-09-25 10:57:00,
2013-09-25 07:02:00,50.4,48.4,28.88,East,98,0.0,0.0,93,0.00,,---,0.00,VWS V14.01,2013-09-25 11:02:00,
2013-09-25 07:07:00,50.4,48.4,28.88,East,91,0.0,0.0,93,0.00,,---,0.00,VWS V14.01,2013-09-25 11:07:00,
2013-09-25 07:12:00,50.4,48.4,28.88,ESE,110,0.0,2.7,93,0.00,,---,0.00,VWS V14.01,2013-09-25 11:12:00,
2013-09-25 07:17:00,50.4,48.1,28.88,East,93,0.0,3.1,92,0.00,,---,0.00,VWS V14.01,2013-09-25 11:17:00,
2013-09-25 07:22:00,50.4,48.1,28.88,East,87,0.0,3.1,92,0.00,,---,0.00,VWS V14.01,2013-09-25 11:22:00,
2013-09-25 07:27:00,50.4,48.1,28.88,East,87,0.0,2.7,92,0.00,,---,0.00,VWS V14.01,2013-09-25 11:27:00,
2013-09-25 07:32:00,50.4,48.1,28.88,East,92,0.0,0.0,92,0.00,,---,0.00,VWS V14.01,2013-09-25 11:32:00,
2013-09-25 07:37:00,50.4,48.1,28.88,ENE,73,0.0,0.0,92,0.00,,---,0.00,VWS V14.01,2013-09-25 11:37:00,
2013-09-25 07:42:00,50.5,48.0,28.88,ENE,73,0.0,0.0,91,0.00,,---,0.00,VWS V14.01,2013-09-25 11:42:00,
2013-09-25 07:47:00,50.4,47.8,28.88,ENE,73,0.0,0.0,91,0.00,,---,0.00,VWS V14.01,2013-09-25 11:47:00,
2013-09-25 07:52:00,50.4,47.8,28.88,East,93,0.0,0.0,91,0.00,,---,0.00,VWS V14.01,2013-09-25 11:52:00,
2013-09-25 07:58:00,50.5,48.0,28.88,ESE,102,0.0,0.0,91,0.00,,---,0.00,VWS V14.01,2013-09-25 11:58:00,
2013-09-25 08:03:00,50.5,48.0,28.88,ESE,102,0.0,0.0,91,0.00,,---,0.00,VWS V14.01,2013-09-25 12:03:00,
2013-09-25 08:08:00,50.5,48.0,28.88,ESE,102,0.0,0.0,91,0.00,,---,0.00,VWS V14.01,2013-09-25 12:08:00,
2013-09-25 08:13:00,50.7,48.2,28.88,East,89,0.0,0.0,91,0.00,,---,0.00,VWS V14.01,2013-09-25 12:13:00,
2013-09-25 08:18:00,50.9,48.4,28.91,ESE,107,0.0,0.0,91,0.00,,---,0.00,VWS V14.01,2013-09-25 12:18:00,
2013-09-25 08:23:00,51.1,48.5,28.91,East,80,0.0,0.0,91,0.00,,---,0.00,VWS V14.01,2013-09-25 12:23:00,
2013-09-25 08:28:00,51.3,48.7,28.91,East,80,0.0,0.0,91,0.00,,---,0.00,VWS V14.01,2013-09-25 12:28:00,
2013-09-25 08:34:00,52.0,49.4,28.91,East,99,0.0,4.0,91,0.00,,---,0.00,VWS V14.01,2013-09-25 12:34:00,
2013-09-25 08:39:00,53.1,50.5,28.91,ESE,115,0.0,4.5,91,0.00,,---,0.00,VWS V14.01,2013-09-25 12:39:00,
2013-09-25 08:45:00,53.4,50.3,28.91,ESE,105,2.7,4.9,89,0.00,,---,0.00,VWS V14.01,2013-09-25 12:45:00,
2013-09-25 08:50:00,53.8,49.4,28.91,SE,125,4.9,5.4,85,0.00,,---,0.00,VWS V14.01,2013-09-25 12:50:00,
2013-09-25 08:55:00,54.3,48.6,28.91,East,85,2.7,4.0,81,0.00,,---,0.00,VWS V14.01,2013-09-25 12:55:00,
2013-09-25 09:00:00,54.5,47.1,28.91,East,84,0.0,4.5,76,0.00,,---,0.00,VWS V14.01,2013-09-25 13:00:00,
2013-09-25 09:05:00,54.5,46.0,28.91,ENE,70,0.0,4.0,73,0.00,,---,0.00,VWS V14.01,2013-09-25 13:05:00,
2013-09-25 09:10:00,54.5,46.0,28.91,East,100,2.7,3.1,73,0.00,,---,0.00,VWS V14.01,2013-09-25 13:10:00,
2013-09-25 09:15:00,54.5,46.0,28.91,East,99,3.1,4.9,73,0.00,,---,0.00,VWS V14.01,2013-09-25 13:15:00,
2013-09-25 09:20:00,54.7,46.2,28.91,East,85,0.0,5.4,73,0.00,,---,0.00,VWS V14.01,2013-09-25 13:20:00,
2013-09-25 09:25:00,55.2,46.7,28.91,ENE,58,0.0,3.1,73,0.00,,---,0.00,VWS V14.01,2013-09-25 13:25:00,
2013-09-25 09:30:00,56.3,48.1,28.91,ENE,78,0.0,2.7,74,0.00,,---,0.00,VWS V14.01,2013-09-25 13:30:00,
2013-09-25 09:35:00,57.4,48.1,28.91,ESE,120,5.4,5.4,71,0.00,,---,0.00,VWS V14.01,2013-09-25 13:35:00,
2013-09-25 09:41:00,58.6,46.9,28.91,SE,130,0.0,4.5,65,0.00,,---,0.00,VWS V14.01,2013-09-25 13:41:00,
2013-09-25 09:46:00,58.8,45.4,28.91,East,79,0.0,3.6,61,0.00,,---,0.00,VWS V14.01,2013-09-25 13:46:00,
2013-09-25 09:51:00,58.5,44.2,28.91,ENE,73,0.0,2.7,59,0.00,,---,0.00,VWS V14.01,2013-09-25 13:51:00,
2013-09-25 09:56:00,58.3,44.0,28.91,East,90,0.0,0.0,59,0.00,,---,0.00,VWS V14.01,2013-09-25 13:56:00,
2013-09-25 10:01:00,58.8,45.8,28.91,East,91,0.0,0.0,62,0.00,,---,0.00,VWS V14.01,2013-09-25 14:01:00,
2013-09-25 10:06:00,60.4,48.2,28.91,ESE,103,0.0,2.7,64,0.00,,---,0.00,VWS V14.01,2013-09-25 14:06:00,
2013-09-25 10:11:00,62.1,48.0,28.91,ENE,69,3.6,4.5,60,0.00,,---,0.00,VWS V14.01,2013-09-25 14:11:00,
2013-09-25 10:16:00,63.9,44.9,28.91,ENE,66,0.0,4.5,50,0.00,,---,0.00,VWS V14.01,2013-09-25 14:16:00,
2013-09-25 10:21:00,65.1,42.1,28.91,ESE,105,4.0,4.9,43,0.00,,---,0.00,VWS V14.01,2013-09-25 14:21:00,
2013-09-25 10:26:00,66.2,39.9,28.91,ESE,114,4.9,6.7,38,0.00,,---,0.00,VWS V14.01,2013-09-25 14:26:00,
2013-09-25 10:31:00,66.4,40.0,28.91,NNE,25,0.0,3.1,38,0.00,,---,0.00,VWS V14.01,2013-09-25 14:31:00,
2013-09-25 10:36:00,67.1,39.3,28.91,ENE,74,3.6,4.0,36,0.00,,---,0.00,VWS V14.01,2013-09-25 14:36:00,
2013-09-25 10:41:00,67.5,39.6,28.91,ENE,77,0.0,3.1,36,0.00,,---,0.00,VWS V14.01,2013-09-25 14:41:00,
2013-09-25 10:46:00,68.2,40.2,28.91,ENE,75,3.1,4.9,36,0.00,,---,0.00,VWS V14.01,2013-09-25 14:46:00,
2013-09-25 10:51:00,68.9,39.4,28.91,East,97,3.6,4.9,34,0.00,,---,0.00,VWS V14.01,2013-09-25 14:51:00,
2013-09-25 10:57:00,70.0,39.6,28.91,NE,41,0.0,0.0,33,0.00,,---,0.00,VWS V14.01,2013-09-25 14:57:00,
2013-09-25 11:02:00,70.9,38.8,28.91,East,89,0.0,4.5,31,0.00,,---,0.00,VWS V14.01,2013-09-25 15:02:00,
2013-09-25 11:07:00,71.8,35.1,28.91,ESE,113,5.8,6.3,26,0.00,,---,0.00,VWS V14.01,2013-09-25 15:07:00,
2013-09-25 11:12:00,72.5,39.3,28.91,East,88,2.7,4.5,30,0.00,,---,0.00,VWS V14.01,2013-09-25 15:12:00,
2013-09-25 11:17:00,72.5,31.5,28.91,ESE,109,4.5,6.7,22,0.00,,---,0.00,VWS V14.01,2013-09-25 15:17:00,
2013-09-25 11:22:00,71.8,30.9,28.91,East,93,3.1,7.4,22,0.00,,---,0.00,VWS V14.01,2013-09-25 15:22:00,
2013-09-25 11:27:00,72.1,31.2,28.91,ESE,106,0.0,4.0,22,0.00,,---,0.00,VWS V14.01,2013-09-25 15:27:00,
2013-09-25 11:32:00,71.6,30.8,28.91,East,97,4.0,6.9,22,0.00,,---,0.00,VWS V14.01,2013-09-25 15:32:00,
2013-09-25 11:37:00,70.0,30.5,28.91,ESE,106,4.5,6.3,23,0.00,,---,0.00,VWS V14.01,2013-09-25 15:37:00,
2013-09-25 11:42:00,68.5,31.4,28.91,ENE,71,4.0,5.4,25,0.00,,---,0.00,VWS V14.01,2013-09-25 15:42:00,
2013-09-25 11:47:00,68.0,32.8,28.91,East,84,3.1,6.3,27,0.00,,---,0.00,VWS V14.01,2013-09-25 15:47:00,
2013-09-25 11:52:00,68.4,36.6,28.91,ESE,107,4.5,4.5,31,0.00,,---,0.00,VWS V14.01,2013-09-25 15:52:00,
2013-09-25 11:57:00,69.1,36.4,28.91,East,82,3.6,3.6,30,0.00,,---,0.00,VWS V14.01,2013-09-25 15:57:00,
2013-09-25 12:02:00,70.9,33.3,28.91,East,88,4.9,4.9,25,0.00,,---,0.00,VWS V14.01,2013-09-25 16:02:00,
2013-09-25 12:07:00,71.2,30.5,28.91,East,99,6.3,7.4,22,0.00,,---,0.00,VWS V14.01,2013-09-25 16:07:00,
2013-09-25 12:12:00,70.7,31.1,28.91,ENE,64,0.0,4.9,23,0.00,,---,0.00,VWS V14.01,2013-09-25 16:12:00,
2013-09-25 12:17:00,72.9,34.0,28.91,NE,56,3.6,4.9,24,0.00,,---,0.00,VWS V14.01,2013-09-25 16:17:00,
2013-09-25 12:22:00,74.1,27.9,28.91,ESE,112,6.3,6.7,18,0.00,,---,0.00,VWS V14.01,2013-09-25 16:22:00,
2013-09-25 12:27:00,73.4,27.4,28.91,East,101,6.3,8.3,18,0.00,,---,0.00,VWS V14.01,2013-09-25 16:27:00,
2013-09-25 12:32:00,75.4,29.0,28.91,ENE,71,4.9,6.3,18,0.00,,---,0.00,VWS V14.01,2013-09-25 16:32:00,
2013-09-25 12:37:00,76.1,25.1,28.91,East,79,4.9,6.3,15,0.00,,---,0.00,VWS V14.01,2013-09-25 16:37:00,
2013-09-25 12:42:00,76.1,29.6,28.91,ENE,66,4.5,4.9,18,0.00,,---,0.00,VWS V14.01,2013-09-25 16:42:00,
2013-09-25 12:47:00,77.0,30.3,28.91,East,89,3.6,3.6,18,0.00,,---,0.00,VWS V14.01,2013-09-25 16:47:00,
2013-09-25 12:52:00,78.3,29.9,28.91,East,91,5.8,5.8,17,0.00,,---,0.00,VWS V14.01,2013-09-25 16:52:00,
2013-09-25 12:58:00,77.4,30.6,28.91,ENE,67,4.5,6.7,18,0.00,,---,0.00,VWS V14.01,2013-09-25 16:58:00,
2013-09-25 13:03:00,78.1,29.8,28.88,ESE,117,0.0,0.0,17,0.00,,---,0.00,VWS V14.01,2013-09-25 17:03:00,
2013-09-25 13:08:00,78.6,27.1,28.88,East,101,6.3,6.9,15,0.00,,---,0.00,VWS V14.01,2013-09-25 17:08:00,
2013-09-25 13:13:00,77.7,26.4,28.88,East,97,4.5,8.7,15,0.00,,---,0.00,VWS V14.01,2013-09-25 17:13:00,
2013-09-25 13:18:00,77.4,26.1,28.88,East,86,0.0,6.7,15,0.00,,---,0.00,VWS V14.01,2013-09-25 17:18:00,
2013-09-25 13:23:00,77.4,26.1,28.88,ESE,106,6.9,6.9,15,0.00,,---,0.00,VWS V14.01,2013-09-25 17:23:00,
2013-09-25 13:28:00,77.5,26.3,28.88,ESE,108,9.2,11.6,15,0.00,,---,0.00,VWS V14.01,2013-09-25 17:28:00,
2013-09-25 13:33:00,76.1,25.1,28.88,ESE,105,4.5,6.7,15,0.00,,---,0.00,VWS V14.01,2013-09-25 17:33:00,
2013-09-25 13:38:00,77.7,26.4,28.88,East,97,3.6,5.4,15,0.00,,---,0.00,VWS V14.01,2013-09-25 17:38:00,
2013-09-25 13:43:00,80.1,26.6,28.88,East,99,4.9,6.3,14,0.00,,---,0.00,VWS V14.01,2013-09-25 17:43:00,
2013-09-25 13:48:00,80.2,26.8,28.88,East,96,4.5,6.3,14,0.00,,---,0.00,VWS V14.01,2013-09-25 17:48:00,
2013-09-25 13:53:00,79.7,28.0,28.88,NE,43,2.7,4.5,15,0.00,,---,0.00,VWS V14.01,2013-09-25 17:53:00,
2013-09-25 13:58:00,80.8,27.2,28.88,North,351,0.0,0.0,14,0.00,,---,0.00,VWS V14.01,2013-09-25 17:58:00,
2013-09-25 14:03:00,81.3,27.6,28.88,East,79,5.8,5.8,14,0.00,,---,0.00,VWS V14.01,2013-09-25 18:03:00,
2013-09-25 14:08:00,81.9,28.0,28.88,East,86,3.1,3.6,14,0.00,,---,0.00,VWS V14.01,2013-09-25 18:08:00,
2013-09-25 14:13:00,82.4,28.5,28.88,NW,314,2.7,3.6,14,0.00,,---,0.00,VWS V14.01,2013-09-25 18:13:00,
2013-09-25 14:18:00,81.9,28.0,28.88,ESE,116,0.0,0.0,14,0.00,,---,0.00,VWS V14.01,2013-09-25 18:18:00,
2013-09-25 14:23:00,81.9,28.0,28.88,ESE,115,3.6,3.6,14,0.00,,---,0.00,VWS V14.01,2013-09-25 18:23:00,
2013-09-25 14:28:00,82.2,28.3,28.88,ESE,112,4.5,4.5,14,0.00,,---,0.00,VWS V14.01,2013-09-25 18:28:00,
2013-09-25 14:33:00,82.4,28.5,28.85,East,88,0.0,6.7,14,0.00,,---,0.00,VWS V14.01,2013-09-25 18:33:00,
2013-09-25 14:38:00,82.8,28.8,28.85,East,82,0.0,2.7,14,0.00,,---,0.00,VWS V14.01,2013-09-25 18:38:00,
2013-09-25 14:43:00,83.1,29.0,28.85,SE,126,0.0,0.0,14,0.00,,---,0.00,VWS V14.01,2013-09-25 18:43:00,
2013-09-25 14:48:00,83.3,29.2,28.85,NNE,21,0.0,0.0,14,0.00,,---,0.00,VWS V14.01,2013-09-25 18:48:00,
2013-09-25 14:53:00,82.2,28.3,28.85,ESE,108,4.5,5.4,14,0.00,,---,0.00,VWS V14.01,2013-09-25 18:53:00,
2013-09-25 14:58:00,82.2,28.3,28.85,NNW,335,4.0,4.0,14,0.00,,---,0.00,VWS V14.01,2013-09-25 18:58:00,
2013-09-25 15:03:00,82.4,28.5,28.85,ENE,71,4.9,4.9,14,0.00,,---,0.00,VWS V14.01,2013-09-25 19:03:00,
2013-09-25 15:06:00,82.4,28.5,29.00,East,84,5.8,5.8,14,0.00,,---,0.00,VWS V14.01,2013-09-25 19:06:00,
2013-09-25 15:08:00,82.0,28.2,28.85,East,96,0.0,0.0,14,0.00,,---,0.00,VWS V14.01,2013-09-25 19:08:00,
2013-09-25 15:09:00,82.8,28.8,29.00,ESE,108,3.6,5.8,14,0.00,,---,0.00,VWS V14.01,2013-09-25 19:09:00,
2013-09-25 15:11:00,83.5,27.5,29.00,ENE,71,0.0,2.7,13,0.00,,---,0.00,VWS V14.01,2013-09-25 19:11:00,
2013-09-25 15:13:00,81.3,27.6,28.85,ESE,118,0.0,2.7,14,0.00,,---,0.00,VWS V14.01,2013-09-25 19:13:00,
2013-09-25 15:14:00,84.0,27.9,29.00,East,97,3.1,3.6,13,0.00,,---,0.00,VWS V14.01,2013-09-25 19:14:00,
2013-09-25 15:17:00,84.0,27.9,29.00,ESE,108,6.3,6.3,13,0.00,,---,0.00,VWS V14.01,2013-09-25 19:17:00,
2013-09-25 15:18:00,80.6,27.0,28.85,NNW,327,0.0,3.6,14,0.00,,---,0.00,VWS V14.01,2013-09-25 19:18:00,
2013-09-25 15:20:00,83.7,27.7,29.00,ESE,116,5.4,6.3,13,0.00,,---,0.00,VWS V14.01,2013-09-25 19:20:00,
2013-09-25 15:21:00,83.7,27.7,29.00,East,99,0.0,5.4,13,0.00,,---,0.00,VWS V14.01,2013-09-25 19:21:00,
2013-09-25 15:22:00,83.7,27.7,29.00,SE,136,5.4,5.8,13,0.00,,---,0.00,VWS V14.01,2013-09-25 19:22:00,
2013-09-25 15:23:00,81.1,27.5,28.85,ESE,105,0.0,3.1,14,0.00,,---,0.00,VWS V14.01,2013-09-25 19:23:00,
2013-09-25 15:24:00,83.7,27.7,29.00,South,169,0.0,4.9,13,0.00,,---,0.00,VWS V14.01,2013-09-25 19:24:00,
2013-09-25 15:25:00,83.8,27.8,29.00,ESE,121,3.1,5.4,13,0.00,,---,0.00,VWS V14.01,2013-09-25 19:25:00,
2013-09-25 15:26:00,84.0,27.9,29.00,ESE,121,0.0,3.1,13,0.00,,---,0.00,VWS V14.01,2013-09-25 19:26:00,
2013-09-25 15:28:00,80.6,27.0,28.85,SE,135,5.4,5.4,14,0.00,,---,0.00,VWS V14.01,2013-09-25 19:28:00,
2013-09-25 15:29:00,85.1,28.8,29.00,ESE,106,4.0,5.4,13,0.00,,---,0.00,VWS V14.01,2013-09-25 19:29:00,
2013-09-25 15:30:00,84.9,28.6,29.00,SE,135,0.0,4.0,13,0.00,,---,0.00,VWS V14.01,2013-09-25 19:30:00,
2013-09-25 15:31:00,85.1,28.8,29.00,ENE,61,0.0,0.0,13,0.00,,---,0.00,VWS V14.01,2013-09-25 19:31:00,
2013-09-25 15:32:00,85.3,28.9,29.00,ENE,61,0.0,0.0,13,0.00,,---,0.00,VWS V14.01,2013-09-25 19:32:00,
2013-09-25 15:33:00,81.3,27.6,28.85,ENE,75,0.0,3.1,14,0.00,,---,0.00,VWS V14.01,2013-09-25 19:33:00,
2013-09-25 15:36:00,86.0,29.5,29.00,ENE,68,0.0,0.0,13,0.00,,---,0.00,VWS V14.01,2013-09-25 19:36:00,
2013-09-25 15:37:00,86.0,29.5,29.00,ENE,78,0.0,0.0,13,0.00,,---,0.00,VWS V14.01,2013-09-25 19:37:00,
2013-09-25 15:38:00,80.8,27.2,28.85,ENE,65,4.0,5.8,14,0.00,,---,0.00,VWS V14.01,2013-09-25 19:38:00,
2013-09-25 15:39:00,86.0,29.5,29.00,East,90,0.0,3.1,13,0.00,,---,0.00,VWS V14.01,2013-09-25 19:39:00,
2013-09-25 15:40:00,86.0,29.5,29.00,East,90,0.0,0.0,13,0.00,,---,0.00,VWS V14.01,2013-09-25 19:40:00,
2013-09-25 15:41:00,86.0,29.5,29.00,ESE,115,0.0,0.0,13,0.00,,---,0.00,VWS V14.01,2013-09-25 19:41:00,
2013-09-25 15:42:00,86.2,29.6,29.00,East,79,4.5,4.5,13,0.00,,---,0.00,VWS V14.01,2013-09-25 19:42:00,
2013-09-25 15:43:00,81.0,27.3,28.85,East,92,5.8,6.7,14,0.00,,---,0.00,VWS V14.01,2013-09-25 19:43:00,
2013-09-25 15:44:00,85.5,29.1,29.00,ESE,106,0.0,6.3,13,0.00,,---,0.00,VWS V14.01,2013-09-25 19:44:00,
2013-09-25 15:45:00,85.1,28.8,29.00,East,92,0.0,3.1,13,0.00,,---,0.00,VWS V14.01,2013-09-25 19:45:00,
2013-09-25 15:47:00,85.1,28.8,29.00,SE,129,6.3,6.9,13,0.00,,---,0.00,VWS V14.01,2013-09-25 19:47:00,
2013-09-25 15:48:00,80.6,27.0,28.85,East,97,4.5,4.5,14,0.00,,---,0.00,VWS V14.01,2013-09-25 19:48:00,
2013-09-25 15:50:00,84.4,28.2,29.00,ENE,77,2.7,6.9,13,0.00,,---,0.00,VWS V14.01,2013-09-25 19:50:00,
2013-09-25 15:53:00,79.9,26.5,28.85,East,97,5.4,7.8,14,0.00,,---,0.00,VWS V14.01,2013-09-25 19:53:00,
2013-09-25 15:54:00,84.4,28.2,29.00,ESE,104,0.0,4.0,13,0.00,,---,0.00,VWS V14.01,2013-09-25 19:54:00,
2013-09-25 15:55:00,84.4,28.2,29.00,ENE,70,2.7,4.9,13,0.00,,---,0.00,VWS V14.01,2013-09-25 19:55:00,
2013-09-25 15:58:00,80.8,27.2,28.85,East,92,0.0,0.0,14,0.00,,---,0.00,VWS V14.01,2013-09-25 19:58:00,
2013-09-25 16:00:00,84.7,28.5,29.00,SE,137,4.0,6.7,13,0.00,,---,0.00,VWS V14.01,2013-09-25 20:00:00,
2013-09-25 16:02:00,84.6,28.4,29.00,East,95,3.1,5.4,13,0.00,,---,0.00,VWS V14.01,2013-09-25 20:02:00,
2013-09-25 16:03:00,81.3,27.6,28.85,ESE,113,0.0,3.6,14,0.00,,---,0.00,VWS V14.01,2013-09-25 20:03:00,
2013-09-25 16:05:00,84.4,28.2,29.00,ENE,72,0.0,2.7,13,0.00,,---,0.00,VWS V14.01,2013-09-25 20:05:00,
2013-09-25 16:07:00,84.6,28.4,29.00,East,83,0.0,0.0,13,0.00,,---,0.00,VWS V14.01,2013-09-25 20:07:00,
2013-09-25 16:08:00,80.8,27.2,28.85,East,95,4.5,6.9,14,0.00,,---,0.00,VWS V14.01,2013-09-25 20:08:00,
2013-09-25 16:09:00,84.6,28.4,29.00,SE,130,4.9,6.3,13,0.00,,---,0.00,VWS V14.01,2013-09-25 20:09:00,
2013-09-25 16:10:00,84.4,28.2,29.00,East,101,0.0,4.9,13,0.00,,---,0.00,VWS V14.01,2013-09-25 20:10:00,
2013-09-25 16:12:00,84.2,28.1,29.00,ENE,74,4.0,6.7,13,0.00,,---,0.00,VWS V14.01,2013-09-25 20:12:00,
2013-09-25 16:13:00,80.4,26.9,28.85,ESE,111,2.7,2.7,14,0.00,,---,0.00,VWS V14.01,2013-09-25 20:13:00,
2013-09-25 16:14:00,83.8,27.8,29.00,ESE,113,4.0,5.4,13,0.00,,---,0.00,VWS V14.01,2013-09-25 20:14:00,
2013-09-25 16:15:00,83.7,27.7,29.00,ENE,59,3.6,4.5,13,0.00,,---,0.00,VWS V14.01,2013-09-25 20:15:00,
2013-09-25 16:16:00,83.7,27.7,29.00,ENE,75,2.7,4.5,13,0.00,,---,0.00,VWS V14.01,2013-09-25 20:16:00,
2013-09-25 16:17:00,83.7,27.7,29.00,East,97,2.7,4.0,13,0.00,,---,0.00,VWS V14.01,2013-09-25 20:17:00,
2013-09-25 16:18:00,81.0,27.3,28.85,NNE,33,0.0,3.6,14,0.00,,---,0.00,VWS V14.01,2013-09-25 20:18:00,
2013-09-25 16:19:00,83.7,27.7,29.00,East,87,3.1,5.4,13,0.00,,---,0.00,VWS V14.01,2013-09-25 20:19:00,
2013-09-25 16:20:00,83.5,27.5,29.00,SE,130,3.6,4.0,13,0.00,,---,0.00,VWS V14.01,2013-09-25 20:20:00,
2013-09-25 16:21:00,83.5,27.5,29.00,SE,125,0.0,4.0,13,0.00,,---,0.00,VWS V14.01,2013-09-25 20:21:00,
2013-09-25 16:22:00,83.8,27.8,29.00,ESE,120,0.0,0.0,13,0.00,,---,0.00,VWS V14.01,2013-09-25 20:22:00,
2013-09-25 16:23:00,81.0,27.3,28.85,East,82,3.1,5.4,14,0.00,,---,0.00,VWS V14.01,2013-09-25 20:23:00,
2013-09-25 16:24:00,83.8,27.8,29.00,ENE,73,5.4,6.9,13,0.00,,---,0.00,VWS V14.01,2013-09-25 20:24:00,
2013-09-25 16:25:00,83.3,27.4,29.00,East,85,2.7,6.3,13,0.00,,---,0.00,VWS V14.01,2013-09-25 20:25:00,
2013-09-25 16:28:00,80.4,26.9,28.85,ESE,113,3.1,4.9,14,0.00,,---,0.00,VWS V14.01,2013-09-25 20:28:00,
2013-09-25 16:30:00,83.3,29.2,28.97,ENE,74,0.0,4.5,14,0.00,,---,0.00,VWS V14.01,2013-09-25 20:30:00,
2013-09-25 16:31:00,83.3,27.4,28.97,ENE,71,0.0,2.7,13,0.00,,---,0.00,VWS V14.01,2013-09-25 20:31:00,
2013-09-25 16:32:00,83.3,27.4,28.97,East,92,3.1,3.6,13,0.00,,---,0.00,VWS V14.01,2013-09-25 20:32:00,
2013-09-25 16:33:00,80.6,27.0,28.85,WSW,255,0.0,2.7,14,0.00,,---,0.00,VWS V14.01,2013-09-25 20:33:00,
2013-09-25 16:34:00,83.7,27.7,28.97,SE,133,0.0,0.0,13,0.00,,---,0.00,VWS V14.01,2013-09-25 20:34:00,
2013-09-25 16:36:00,83.8,27.8,28.97,ENE,70,0.0,0.0,13,0.00,,---,0.00,VWS V14.01,2013-09-25 20:36:00,
2013-09-25 16:37:00,83.7,27.7,28.97,East,100,3.6,6.3,13,0.00,,---,0.00,VWS V14.01,2013-09-25 20:37:00,
2013-09-25 16:38:00,80.8,27.2,28.85,East,91,4.5,4.9,14,0.00,,---,0.00,VWS V14.01,2013-09-25 20:38:00,
2013-09-25 16:43:00,80.4,26.9,28.85,East,84,0.0,3.6,14,0.00,,---,0.00,VWS V14.01,2013-09-25 20:43:00,
2013-09-25 16:48:00,81.0,27.3,28.85,NW,311,3.6,3.6,14,0.00,,---,0.00,VWS V14.01,2013-09-25 20:48:00,
2013-09-25 16:49:00,83.7,27.7,29.00,ENE,76,0.0,0.0,13,0.00,,---,0.00,VWS V14.01,2013-09-25 20:49:00,
2013-09-25 16:51:00,84.0,27.9,29.00,ENE,76,0.0,0.0,13,0.00,,---,0.00,VWS V14.01,2013-09-25 20:51:00,
2013-09-25 16:53:00,80.6,27.0,28.85,SW,232,0.0,0.0,14,0.00,,---,0.00,VWS V14.01,2013-09-25 20:53:00,
2013-09-25 16:57:00,83.7,27.7,29.00,ENE,58,0.0,0.0,13,0.00,,---,0.00,VWS V14.01,2013-09-25 20:57:00,
2013-09-25 16:58:00,80.1,26.6,28.85,NNE,24,0.0,2.7,14,0.00,,---,0.00,VWS V14.01,2013-09-25 20:58:00,
2013-09-25 17:03:00,79.9,26.5,28.85,ENE,60,0.0,0.0,14,0.00,,---,0.00,VWS V14.01,2013-09-25 21:03:00,
2013-09-25 17:08:00,79.3,27.7,28.85,East,91,3.1,4.5,15,0.00,,---,0.00,VWS V14.01,2013-09-25 21:08:00,
2013-09-25 17:13:00,79.3,27.7,28.85,East,80,0.0,0.0,15,0.00,,---,0.00,VWS V14.01,2013-09-25 21:13:00,
2013-09-25 17:18:00,79.2,27.6,28.85,ENE,75,4.9,5.4,15,0.00,,---,0.00,VWS V14.01,2013-09-25 21:18:00,
2013-09-25 17:23:00,78.3,26.9,28.85,ENE,74,3.1,4.0,15,0.00,,---,0.00,VWS V14.01,2013-09-25 21:23:00,
2013-09-25 17:28:00,77.7,26.4,28.85,ENE,76,3.6,5.8,15,0.00,,---,0.00,VWS V14.01,2013-09-25 21:28:00,
2013-09-25 17:33:00,77.7,26.4,28.85,East,92,0.0,4.0,15,0.00,,---,0.00,VWS V14.01,2013-09-25 21:33:00,
2013-09-25 17:38:00,78.1,26.7,28.85,East,91,0.0,0.0,15,0.00,,---,0.00,VWS V14.01,2013-09-25 21:38:00,
2013-09-25 17:43:00,78.4,27.0,28.85,ENE,71,0.0,3.6,15,0.00,,---,0.00,VWS V14.01,2013-09-25 21:43:00,
2013-09-25 17:48:00,77.9,26.6,28.85,East,94,0.0,0.0,15,0.00,,---,0.00,VWS V14.01,2013-09-25 21:48:00,
2013-09-25 17:53:00,77.5,26.3,28.85,ENE,78,0.0,2.7,15,0.00,,---,0.00,VWS V14.01,2013-09-25 21:53:00,
2013-09-25 17:58:00,76.8,25.7,28.85,ESE,113,5.8,6.7,15,0.00,,---,0.00,VWS V14.01,2013-09-25 21:58:00,
2013-09-25 18:03:00,77.0,25.9,28.85,ENE,78,0.0,2.7,15,0.00,,---,0.00,VWS V14.01,2013-09-25 22:03:00,
2013-09-25 18:08:00,76.8,25.7,28.85,ENE,70,0.0,0.0,15,0.00,,---,0.00,VWS V14.01,2013-09-25 22:08:00,
2013-09-25 18:13:00,76.3,25.3,28.85,East,96,0.0,0.0,15,0.00,,---,0.00,VWS V14.01,2013-09-25 22:13:00,
2013-09-25 18:18:00,75.6,24.7,28.85,ENE,77,2.7,5.4,15,0.00,,---,0.00,VWS V14.01,2013-09-25 22:18:00,
2013-09-25 18:23:00,75.2,24.4,28.85,SE,129,0.0,4.0,15,0.00,,---,0.00,VWS V14.01,2013-09-25 22:23:00,
2013-09-25 18:28:00,75.0,24.3,28.85,ESE,111,0.0,4.5,15,0.00,,---,0.00,VWS V14.01,2013-09-25 22:28:00,
2013-09-25 18:33:00,74.5,23.8,28.85,East,79,0.0,4.0,15,0.00,,---,0.00,VWS V14.01,2013-09-25 22:33:00,
2013-09-25 18:38:00,74.1,25.1,28.85,East,88,0.0,0.0,16,0.00,,---,0.00,VWS V14.01,2013-09-25 22:38:00,
2013-09-25 18:45:00,72.9,24.1,28.85,East,83,0.0,3.6,16,0.00,,---,0.00,VWS V14.01,2013-09-25 22:45:00,
2013-09-25 18:53:00,71.6,27.2,28.85,East,89,0.0,0.0,19,0.00,,---,0.00,VWS V14.01,2013-09-25 22:53:00,
2013-09-25 19:03:00,70.2,26.0,28.85,ESE,106,2.7,2.7,19,0.00,,---,0.00,VWS V14.01,2013-09-25 23:03:00,
2013-09-25 19:09:00,69.6,29.1,28.85,ESE,106,0.0,0.0,22,0.00,,---,0.00,VWS V14.01,2013-09-25 23:09:00,
2013-09-25 19:21:00,68.4,29.1,28.85,ESE,106,0.0,0.0,23,0.00,,---,0.00,VWS V14.01,2013-09-25 23:21:00,
2013-09-25 19:49:00,65.7,27.9,28.88,ESE,106,0.0,0.0,24,0.00,,---,0.00,VWS V14.01,2013-09-25 23:49:00,
2013-09-25 20:16:00,63.5,34.7,28.88,ESE,106,0.0,0.0,34,0.00,,---,0.00,VWS V14.01,2013-09-26 00:16:00,
2013-09-25 20:22:00,62.8,33.3,28.88,ESE,106,0.0,0.0,33,0.00,,---,0.00,VWS V14.01,2013-09-26 00:22:00,
2013-09-25 20:29:00,62.2,33.5,28.88,ESE,106,0.0,0.0,34,0.00,,---,0.00,VWS V14.01,2013-09-26 00:29:00,
2013-09-25 20:34:00,61.7,33.8,28.88,ESE,106,0.0,0.0,35,0.00,,---,0.00,VWS V14.01,2013-09-26 00:34:00,
2013-09-25 20:39:00,61.2,34.0,28.88,ESE,106,0.0,0.0,36,0.00,,---,0.00,VWS V14.01,2013-09-26 00:39:00,
2013-09-25 20:44:00,60.8,34.4,28.88,ESE,106,0.0,0.0,37,0.00,,---,0.00,VWS V14.01,2013-09-26 00:44:00,
2013-09-25 20:49:00,60.8,34.4,28.88,ESE,106,0.0,0.0,37,0.00,,---,0.00,VWS V14.01,2013-09-26 00:49:00,
2013-09-25 20:55:00,60.6,34.2,28.88,ESE,106,0.0,0.0,37,0.00,,---,0.00,VWS V14.01,2013-09-26 00:55:00,
2013-09-25 21:01:00,60.4,34.1,28.88,ESE,106,0.0,0.0,37,0.00,,---,0.00,VWS V14.01,2013-09-26 01:01:00,
2013-09-25 21:08:00,60.4,35.4,28.88,SE,131,0.0,3.6,39,0.00,,---,0.00,VWS V14.01,2013-09-26 01:08:00,
2013-09-25 21:13:00,60.4,36.0,28.88,SE,131,0.0,0.0,40,0.00,,---,0.00,VWS V14.01,2013-09-26 01:13:00,
2013-09-25 21:18:00,60.6,37.4,28.88,ENE,66,0.0,0.0,42,0.00,,---,0.00,VWS V14.01,2013-09-26 01:18:00,
2013-09-25 21:23:00,60.6,38.6,28.88,ENE,66,0.0,0.0,44,0.00,,---,0.00,VWS V14.01,2013-09-26 01:23:00,
2013-09-25 21:28:00,60.4,38.4,28.88,ENE,66,0.0,0.0,44,0.00,,---,0.00,VWS V14.01,2013-09-26 01:28:00,
2013-09-25 21:33:00,60.4,39.0,28.88,East,81,0.0,0.0,45,0.00,,---,0.00,VWS V14.01,2013-09-26 01:33:00,
2013-09-25 21:38:00,60.3,38.8,28.88,ENE,78,0.0,0.0,45,0.00,,---,0.00,VWS V14.01,2013-09-26 01:38:00,
2013-09-25 21:43:00,59.9,38.5,28.88,ENE,78,0.0,0.0,45,0.00,,---,0.00,VWS V14.01,2013-09-26 01:43:00,
2013-09-25 21:48:00,59.7,38.9,28.88,ENE,78,0.0,0.0,46,0.00,,---,0.00,VWS V14.01,2013-09-26 01:48:00,
2013-09-25 21:53:00,59.7,39.5,28.88,ENE,78,0.0,0.0,47,0.00,,---,0.00,VWS V14.01,2013-09-26 01:53:00,
2013-09-25 21:58:00,59.5,40.4,28.88,West,279,0.0,0.0,49,0.00,,---,0.00,VWS V14.01,2013-09-26 01:58:00,
2013-09-25 22:03:00,59.7,41.6,28.88,East,79,0.0,0.0,51,0.00,,---,0.00,VWS V14.01,2013-09-26 02:03:00,
2013-09-25 22:09:00,59.7,42.6,28.88,ENE,78,0.0,3.1,53,0.00,,---,0.00,VWS V14.01,2013-09-26 02:09:00,
2013-09-25 22:14:00,59.7,42.6,28.88,ENE,78,0.0,0.0,53,0.00,,---,0.00,VWS V14.01,2013-09-26 02:14:00,
2013-09-25 22:19:00,59.5,42.4,28.91,East,79,0.0,0.0,53,0.00,,---,0.00,VWS V14.01,2013-09-26 02:19:00,
2013-09-25 22:24:00,59.4,42.7,28.91,East,88,0.0,0.0,54,0.00,,---,0.00,VWS V14.01,2013-09-26 02:24:00,
2013-09-25 22:29:00,59.2,42.6,28.91,East,90,0.0,0.0,54,0.00,,---,0.00,VWS V14.01,2013-09-26 02:29:00,
2013-09-25 22:34:00,59.0,42.9,28.91,East,90,0.0,0.0,55,0.00,,---,0.00,VWS V14.01,2013-09-26 02:34:00,
2013-09-25 22:39:00,58.6,43.0,28.91,ENE,57,0.0,0.0,56,0.00,,---,0.00,VWS V14.01,2013-09-26 02:39:00,
2013-09-25 22:45:00,58.5,43.3,28.91,East,89,0.0,0.0,57,0.00,,---,0.00,VWS V14.01,2013-09-26 02:45:00,
2013-09-25 22:50:00,58.1,43.9,28.91,East,101,0.0,0.0,59,0.00,,---,0.00,VWS V14.01,2013-09-26 02:50:00,
2013-09-25 22:56:00,58.1,44.7,28.91,ENE,75,0.0,0.0,61,0.00,,---,0.00,VWS V14.01,2013-09-26 02:56:00,
2013-09-25 23:01:00,58.1,46.4,28.91,East,89,0.0,3.1,65,0.00,,---,0.00,VWS V14.01,2013-09-26 03:01:00,
2013-09-25 23:06:00,58.1,46.8,28.91,East,98,0.0,4.0,66,0.00,,---,0.00,VWS V14.01,2013-09-26 03:06:00,
2013-09-25 23:11:00,58.1,47.2,28.91,East,92,2.7,3.1,67,0.00,,---,0.00,VWS V14.01,2013-09-26 03:11:00,
2013-09-25 23:16:00,58.1,47.6,28.91,ENE,63,0.0,4.0,68,0.00,,---,0.00,VWS V14.01,2013-09-26 03:16:00,
2013-09-25 23:21:00,58.1,48.0,28.91,ENE,74,0.0,4.0,69,0.00,,---,0.00,VWS V14.01,2013-09-26 03:21:00,
2013-09-25 23:26:00,58.1,48.0,28.91,East,81,3.1,4.0,69,0.00,,---,0.00,VWS V14.01,2013-09-26 03:26:00,
2013-09-25 23:31:00,58.1,48.0,28.91,East,88,2.7,2.7,69,0.00,,---,0.00,VWS V14.01,2013-09-26 03:31:00,
2013-09-25 23:36:00,58.3,48.5,28.91,ENE,75,3.6,5.4,70,0.00,,---,0.00,VWS V14.01,2013-09-26 03:36:00,
2013-09-25 23:41:00,58.1,48.0,28.91,East,99,3.6,5.4,69,0.00,,---,0.00,VWS V14.01,2013-09-26 03:41:00,
2013-09-25 23:46:00,58.1,48.4,28.91,ENE,78,4.5,5.4,70,0.00,,---,0.00,VWS V14.01,2013-09-26 03:46:00,
2013-09-25 23:51:00,57.9,47.8,28.91,East,88,0.0,2.7,69,0.00,,---,0.00,VWS V14.01,2013-09-26 03:51:00,
2013-09-25 23:56:00,57.7,48.0,28.91,East,92,4.5,4.5,70,0.00,,---,0.00,VWS V14.01,2013-09-26 03:56:00,
2013-09-25 23:57:00,58.6,38.5,29.06,ENE,76,0.0,3.1,47,0.00,,---,0.00,VWS V14.01,2013-09-26 03:57:00,
2013-09-25 23:58:00,58.5,38.3,29.06,ENE,76,0.0,3.1,47,0.00,,---,0.00,VWS V14.01,2013-09-26 03:58:00,
2013-09-25 23:59:00,58.5,38.3,29.06,ENE,76,2.7,2.7,47,0.00,,---,0.00,VWS V14.01,2013-09-26 03:59:00,